Time,TemperatureF,DewpointF,PressureIn,WindDirection,WindDirectionDegrees,WindSpeedMPH,WindSpeedGustMPH,Humidity,HourlyPrecipIn,Conditions,Clouds,dailyrainin,SoftwareType,DateUTC
2013-04-14 00:03:00,49.2,43.3,30.13,NNW,341,0.0,0.0,80,0.00,RA,,0.00,WeatherDisplay:10.37,2013-04-14 05:03:00,
2013-04-14 00:08:00,49.1,43.5,30.13,NNW,341,0.0,0.0,81,0.00,RA,,0.00,WeatherDisplay:10.37,2013-04-14 05:08:00,
2013-04-14 00:13:00,48.8,43.2,30.13,NNW,341,0.0,0.0,81,0.00,CLR,,0.00,WeatherDisplay:10.37,2013-04-14 05:13:00,
2013-04-14 00:18:00,48.5,42.9,30.13,NNW,341,0.0,0.0,81,0.00,CLR,,0.00,WeatherDisplay:10.37,2013-04-14 05:18:00,
2013-04-14 00:23:00,48.3,43.1,30.13,NNW,341,0.0,0.0,82,0.00,CLR,,0.00,WeatherDisplay:10.37,2013-04-14 05:23:00,
2013-04-14 00:28:00,48.2,43.0,30.13,NNW,341,0.0,0.0,82,0.00,CLR,,0.00,WeatherDisplay:10.37,2013-04-14 05:28:00,
2013-04-14 00:33:00,48.2,43.0,30.12,NNW,341,0.0,0.0,82,0.00,CLR,,0.00,WeatherDisplay:10.37,2013-04-14 05:33:00,
2013-04-14 00:38:00,48.0,43.1,30.12,NNW,341,0.0,0.0,83,0.00,CLR,,0.00,WeatherDisplay:10.37,2013-04-14 05:38:00,
2013-04-14 00:43:00,48.0,43.1,30.12,NNW,341,0.0,0.0,83,0.00,CLR,,0.00,WeatherDisplay:10.37,2013-04-14 05:43:00,
2013-04-14 00:48:00,47.9,43.0,30.12,NNW,340,0.0,0.0,83,0.00,CLR,,0.00,WeatherDisplay:10.37,2013-04-14 05:48:00,
2013-04-14 00:53:00,47.6,42.7,30.12,NNW,341,0.0,0.0,83,0.00,CLR,,0.00,WeatherDisplay:10.37,2013-04-14 05:53:00,
2013-04-14 00:58:00,47.4,42.5,30.12,NNW,341,0.0,0.0,83,0.00,CLR,,0.00,WeatherDisplay:10.37,2013-04-14 05:58:00,
2013-04-14 01:03:00,47.3,42.7,30.12,NNW,341,0.0,0.0,84,0.00,CLR,,0.00,WeatherDisplay:10.37,2013-04-14 06:03:00,
2013-04-14 01:08:00,47.1,42.5,30.12,NNW,341,0.0,0.0,84,0.00,CLR,,0.00,WeatherDisplay:10.37,2013-04-14 06:08:00,
2013-04-14 01:13:00,47.0,42.7,30.11,NNW,341,0.0,0.0,85,0.00,CLR,,0.00,WeatherDisplay:10.37,2013-04-14 06:13:00,
2013-04-14 01:18:00,46.8,42.5,30.11,NNW,341,0.0,0.0,85,0.00,CLR,,0.00,WeatherDisplay:10.37,2013-04-14 06:18:00,
2013-04-14 01:23:00,46.7,42.1,30.11,NNW,341,0.0,0.0,84,0.00,CLR,,0.00,WeatherDisplay:10.37,2013-04-14 06:23:00,
2013-04-14 01:28:00,46.5,42.2,30.11,NNW,341,0.0,0.0,85,0.00,CLR,,0.00,WeatherDisplay:10.37,2013-04-14 06:28:00,
2013-04-14 01:33:00,46.5,42.5,30.11,NNW,341,0.0,0.0,86,0.00,CLR,,0.00,WeatherDisplay:10.37,2013-04-14 06:33:00,
2013-04-14 01:38:00,46.4,42.4,30.11,NNW,341,0.0,0.0,86,0.00,CLR,,0.00,WeatherDisplay:10.37,2013-04-14 06:38:00,
2013-04-14 01:43:00,46.2,42.2,30.11,NNW,341,0.0,0.0,86,0.00,CLR,,0.00,WeatherDisplay:10.37,2013-04-14 06:43:00,
2013-04-14 01:48:00,46.1,42.1,30.10,NNW,341,0.0,0.0,86,0.00,CLR,,0.00,WeatherDisplay:10.37,2013-04-14 06:48:00,
2013-04-14 01:53:00,46.0,42.0,30.10,NNW,341,0.0,0.0,86,0.00,CLR,,0.00,WeatherDisplay:10.37,2013-04-14 06:53:00,
2013-04-14 01:58:00,46.0,42.0,30.11,NNW,341,0.0,0.0,86,0.00,CLR,,0.00,WeatherDisplay:10.37,2013-04-14 06:58:00,
2013-04-14 02:03:00,45.8,41.9,30.10,NNW,341,0.0,0.0,86,0.00,CLR,,0.00,WeatherDisplay:10.37,2013-04-14 07:03:00,
2013-04-14 02:08:00,45.7,41.8,30.09,NNW,341,0.0,0.0,86,0.00,CLR,,0.00,WeatherDisplay:10.37,2013-04-14 07:08:00,
2013-04-14 02:13:00,45.5,41.6,30.09,NNW,341,0.0,0.0,86,0.00,CLR,,0.00,WeatherDisplay:10.37,2013-04-14 07:13:00,
2013-04-14 02:18:00,45.4,41.8,30.09,NNW,341,0.0,0.0,87,0.00,CLR,,0.00,WeatherDisplay:10.37,2013-04-14 07:18:00,
2013-04-14 02:23:00,45.4,41.8,30.09,NNW,341,0.0,0.0,87,0.00,CLR,,0.00,WeatherDisplay:10.37,2013-04-14 07:23:00,
2013-04-14 02:28:00,45.4,41.8,30.09,NNW,341,0.0,0.0,87,0.00,CLR,,0.00,WeatherDisplay:10.37,2013-04-14 07:28:00,
2013-04-14 02:33:00,45.2,41.6,30.08,NNW,341,0.0,0.0,87,0.00,CLR,,0.00,WeatherDisplay:10.37,2013-04-14 07:33:00,
2013-04-14 02:38:00,45.1,41.5,30.08,NNW,341,0.0,0.0,87,0.00,CLR,,0.00,WeatherDisplay:10.37,2013-04-14 07:38:00,
2013-04-14 02:43:00,45.1,41.8,30.08,NNW,341,0.0,0.0,88,0.00,CLR,,0.00,WeatherDisplay:10.37,2013-04-14 07:43:00,
2013-04-14 02:48:00,44.9,41.6,30.09,NNW,341,0.0,0.0,88,0.00,CLR,,0.00,WeatherDisplay:10.37,2013-04-14 07:48:00,
2013-04-14 02:53:00,44.9,41.6,30.08,NNW,341,0.0,0.0,88,0.00,CLR,,0.00,WeatherDisplay:10.37,2013-04-14 07:53:00,
2013-04-14 02:58:00,44.8,41.5,30.08,NNW,341,0.0,0.0,88,0.00,CLR,,0.00,WeatherDisplay:10.37,2013-04-14 07:58:00,
2013-04-14 03:03:00,44.8,41.5,30.08,NNW,341,0.0,0.0,88,0.00,CLR,,0.00,WeatherDisplay:10.37,2013-04-14 08:03:00,
2013-04-14 03:08:00,44.8,41.5,30.08,NNW,341,0.0,0.0,88,0.00,CLR,,0.00,WeatherDisplay:10.37,2013-04-14 08:08:00,
2013-04-14 03:13:00,44.8,41.5,30.08,NNW,341,0.0,0.0,88,0.00,CLR,,0.00,WeatherDisplay:10.37,2013-04-14 08:13:00,
2013-04-14 03:18:00,44.6,41.3,30.08,NNW,341,0.0,0.0,88,0.00,CLR,,0.00,WeatherDisplay:10.37,2013-04-14 08:18:00,
2013-04-14 03:23:00,44.6,41.3,30.08,NNW,341,0.0,0.0,88,0.00,CLR,,0.00,WeatherDisplay:10.37,2013-04-14 08:23:00,
2013-04-14 03:28:00,44.6,41.6,30.09,NNW,341,0.0,0.0,89,0.00,CLR,,0.00,WeatherDisplay:10.37,2013-04-14 08:28:00,
2013-04-14 03:33:00,44.6,41.6,30.09,NNW,341,0.0,0.0,89,0.00,CLR,,0.00,WeatherDisplay:10.37,2013-04-14 08:33:00,
2013-04-14 03:38:00,44.8,41.8,30.09,NNW,340,0.0,0.0,89,0.00,CLR,,0.00,WeatherDisplay:10.37,2013-04-14 08:38:00,
2013-04-14 03:43:00,44.9,41.9,30.09,NNW,341,0.0,0.0,89,0.00,CLR,,0.00,WeatherDisplay:10.37,2013-04-14 08:43:00,
2013-04-14 03:48:00,45.1,42.1,30.09,NNW,341,0.0,0.0,89,0.00,CLR,,0.00,WeatherDisplay:10.37,2013-04-14 08:48:00,
2013-04-14 03:53:00,45.1,42.1,30.08,NNW,341,0.0,0.0,89,0.00,CLR,,0.00,WeatherDisplay:10.37,2013-04-14 08:53:00,
2013-04-14 03:58:00,45.2,41.9,30.08,NNW,341,0.0,0.0,88,0.00,CLR,,0.00,WeatherDisplay:10.37,2013-04-14 08:58:00,
2013-04-14 04:03:00,45.5,41.9,30.08,NNW,341,0.0,0.0,87,0.00,CLR,,0.00,WeatherDisplay:10.37,2013-04-14 09:03:00,
2013-04-14 04:08:00,45.5,41.9,30.08,NNW,341,0.0,0.0,87,0.00,CLR,,0.00,WeatherDisplay:10.37,2013-04-14 09:08:00,
2013-04-14 04:13:00,45.5,41.6,30.08,NNW,341,0.0,0.0,86,0.00,CLR,,0.00,WeatherDisplay:10.37,2013-04-14 09:13:00,
2013-04-14 04:18:00,45.7,42.1,30.08,NNW,341,0.0,0.0,87,0.00,CLR,,0.00,WeatherDisplay:10.37,2013-04-14 09:18:00,
2013-04-14 04:23:00,45.7,42.1,30.08,NNW,341,0.0,0.0,87,0.00,CLR,,0.00,WeatherDisplay:10.37,2013-04-14 09:23:00,
2013-04-14 04:28:00,45.7,42.1,30.08,NNW,341,0.0,0.0,87,0.00,CLR,,0.00,WeatherDisplay:10.37,2013-04-14 09:28:00,
2013-04-14 04:33:00,45.8,42.2,30.08,NNW,341,0.0,0.0,87,0.00,CLR,,0.00,WeatherDisplay:10.37,2013-04-14 09:33:00,
2013-04-14 04:38:00,45.8,42.2,30.08,NNW,341,0.0,0.0,87,0.00,CLR,,0.00,WeatherDisplay:10.37,2013-04-14 09:38:00,
2013-04-14 04:44:00,45.8,42.2,30.08,NNW,341,0.0,0.0,87,0.00,CLR,,0.00,WeatherDisplay:10.37,2013-04-14 09:44:00,
2013-04-14 04:49:00,45.8,42.2,30.08,NNW,341,0.0,0.0,87,0.00,CLR,,0.00,WeatherDisplay:10.37,2013-04-14 09:49:00,
2013-04-14 04:54:00,45.8,42.2,30.08,NNW,341,0.0,0.0,87,0.00,CLR,,0.00,WeatherDisplay:10.37,2013-04-14 09:54:00,
2013-04-14 04:59:00,46.0,42.3,30.08,NNW,341,0.0,0.0,87,0.00,CLR,,0.00,WeatherDisplay:10.37,2013-04-14 09:59:00,
2013-04-14 05:04:00,46.1,42.4,30.09,NNW,341,0.0,0.0,87,0.00,CLR,,0.00,WeatherDisplay:10.37,2013-04-14 10:04:00,
2013-04-14 05:09:00,46.1,42.4,30.09,NNW,341,0.0,0.0,87,0.00,CLR,,0.00,WeatherDisplay:10.37,2013-04-14 10:09:00,
2013-04-14 05:14:00,46.1,42.4,30.09,NNW,341,0.0,0.0,87,0.00,CLR,,0.00,WeatherDisplay:10.37,2013-04-14 10:14:00,
2013-04-14 05:19:00,46.2,42.2,30.10,NNW,341,0.0,0.0,86,0.00,CLR,,0.00,WeatherDisplay:10.37,2013-04-14 10:19:00,
2013-04-14 05:24:00,46.2,42.2,30.10,NNW,341,0.0,0.0,86,0.00,CLR,,0.00,WeatherDisplay:10.37,2013-04-14 10:24:00,
2013-04-14 05:29:00,46.2,42.2,30.10,NNW,341,0.0,0.0,86,0.00,CLR,,0.00,WeatherDisplay:10.37,2013-04-14 10:29:00,
2013-04-14 05:34:00,46.5,42.5,30.11,NNW,341,0.0,0.0,86,0.00,CLR,,0.00,WeatherDisplay:10.37,2013-04-14 10:34:00,
2013-04-14 05:39:00,46.7,42.7,30.11,NNW,341,0.0,0.0,86,0.00,CLR,,0.00,WeatherDisplay:10.37,2013-04-14 10:39:00,
2013-04-14 05:44:00,46.7,42.4,30.11,NNW,341,0.0,0.0,85,0.00,CLR,,0.00,WeatherDisplay:10.37,2013-04-14 10:44:00,
2013-04-14 05:49:00,46.7,42.4,30.11,NNW,341,0.0,0.0,85,0.00,CLR,,0.00,WeatherDisplay:10.37,2013-04-14 10:49:00,
2013-04-14 05:54:00,46.8,42.5,30.11,NNW,341,0.0,0.0,85,0.00,CLR,,0.00,WeatherDisplay:10.37,2013-04-14 10:54:00,
2013-04-14 05:59:00,46.8,42.2,30.11,NNW,341,0.0,0.0,84,0.00,CLR,,0.00,WeatherDisplay:10.37,2013-04-14 10:59:00,
2013-04-14 06:04:00,46.8,42.2,30.11,NNW,341,0.0,0.0,84,0.00,CLR,,0.00,WeatherDisplay:10.37,2013-04-14 11:04:00,
2013-04-14 06:09:00,47.0,42.4,30.11,NNW,341,0.0,0.0,84,0.00,CLR,,0.00,WeatherDisplay:10.37,2013-04-14 11:09:00,
2013-04-14 06:14:00,47.0,42.4,30.11,NNW,341,0.0,0.0,84,0.00,CLR,,0.00,WeatherDisplay:10.37,2013-04-14 11:14:00,
2013-04-14 06:19:00,47.0,42.4,30.11,NNW,341,0.0,0.0,84,0.00,CLR,,0.00,WeatherDisplay:10.37,2013-04-14 11:19:00,
2013-04-14 06:24:00,47.1,42.5,30.11,NNW,341,0.0,0.0,84,0.00,CLR,,0.00,WeatherDisplay:10.37,2013-04-14 11:24:00,
2013-04-14 06:29:00,47.1,42.5,30.10,NE,39,0.0,0.0,84,0.00,CLR,,0.00,WeatherDisplay:10.37,2013-04-14 11:29:00,
2013-04-14 06:34:00,47.1,42.5,30.10,NNE,31,0.0,0.0,84,0.00,CLR,,0.00,WeatherDisplay:10.37,2013-04-14 11:34:00,
2013-04-14 06:39:00,47.3,42.7,30.10,NNE,31,0.0,0.0,84,0.00,CLR,,0.00,WeatherDisplay:10.37,2013-04-14 11:39:00,
2013-04-14 06:44:00,47.3,42.7,30.10,NNE,31,0.0,0.0,84,0.00,CLR,,0.00,WeatherDisplay:10.37,2013-04-14 11:44:00,
2013-04-14 06:49:00,47.3,42.7,30.10,NNE,31,0.0,0.0,84,0.00,CLR,,0.00,WeatherDisplay:10.37,2013-04-14 11:49:00,
2013-04-14 06:54:00,47.4,42.8,30.10,NNE,31,0.0,0.0,84,0.00,CLR,,0.00,WeatherDisplay:10.37,2013-04-14 11:54:00,
2013-04-14 06:59:00,47.6,42.7,30.10,NNE,31,0.0,0.0,83,0.00,CLR,,0.00,WeatherDisplay:10.37,2013-04-14 11:59:00,
2013-04-14 07:04:00,47.7,42.5,30.10,NNE,31,0.0,0.0,82,0.00,CLR,,0.00,WeatherDisplay:10.37,2013-04-14 12:04:00,
2013-04-14 07:09:00,47.9,42.7,30.10,NNE,31,0.0,0.0,82,0.00,CLR,,0.00,WeatherDisplay:10.37,2013-04-14 12:09:00,
2013-04-14 07:14:00,48.0,42.8,30.10,NNE,31,0.0,0.0,82,0.00,CLR,,0.00,WeatherDisplay:10.37,2013-04-14 12:14:00,
2013-04-14 07:19:00,48.3,43.1,30.10,NNE,31,0.0,0.0,82,0.00,CLR,,0.00,WeatherDisplay:10.37,2013-04-14 12:19:00,
2013-04-14 07:24:00,48.6,43.0,30.10,NNE,31,0.0,0.0,81,0.00,CLR,,0.00,WeatherDisplay:10.37,2013-04-14 12:24:00,
2013-04-14 07:29:00,48.8,42.6,30.10,NNE,31,0.0,0.0,79,0.00,CLR,,0.00,WeatherDisplay:10.37,2013-04-14 12:29:00,
2013-04-14 07:34:00,49.1,42.9,30.10,NNE,31,0.0,0.0,79,0.00,CLR,,0.00,WeatherDisplay:10.37,2013-04-14 12:34:00,
2013-04-14 07:39:00,49.4,43.2,30.10,NNE,31,0.0,0.0,79,0.00,CLR,,0.00,WeatherDisplay:10.37,2013-04-14 12:39:00,
2013-04-14 07:44:00,49.8,43.5,30.10,NNE,31,0.0,0.0,79,0.00,CLR,,0.00,WeatherDisplay:10.37,2013-04-14 12:44:00,
2013-04-14 07:49:00,50.1,43.2,30.10,NNE,31,0.0,0.0,77,0.00,CLR,,0.00,WeatherDisplay:10.37,2013-04-14 12:49:00,
2013-04-14 07:54:00,50.4,43.5,30.10,NNE,31,0.0,0.0,77,0.00,CLR,,0.00,WeatherDisplay:10.37,2013-04-14 12:54:00,
2013-04-14 07:59:00,50.7,43.4,30.10,NNE,31,0.0,0.0,76,0.00,CLR,,0.00,WeatherDisplay:10.37,2013-04-14 12:59:00,
2013-04-14 08:04:00,51.0,43.7,30.10,NNE,31,0.0,0.0,76,0.00,CLR,,0.00,WeatherDisplay:10.37,2013-04-14 13:04:00,
2013-04-14 08:09:00,51.3,44.0,30.09,NNE,31,0.0,0.0,76,0.00,CLR,,0.00,WeatherDisplay:10.37,2013-04-14 13:09:00,
2013-04-14 08:14:00,51.6,43.6,30.10,NNE,31,0.0,0.0,74,0.00,CLR,,0.00,WeatherDisplay:10.37,2013-04-14 13:14:00,
2013-04-14 08:19:00,51.9,43.5,30.10,SSW,194,0.0,0.0,73,0.00,CLR,,0.00,WeatherDisplay:10.37,2013-04-14 13:19:00,
2013-04-14 08:24:00,52.2,43.8,30.10,SSW,194,0.0,0.0,73,0.00,CLR,,0.00,WeatherDisplay:10.37,2013-04-14 13:24:00,
2013-04-14 08:29:00,52.5,44.1,30.10,SSW,194,0.0,0.0,73,0.00,CLR,,0.00,WeatherDisplay:10.37,2013-04-14 13:29:00,
2013-04-14 08:34:00,52.6,44.2,30.10,SSW,193,0.0,0.0,73,0.00,CLR,,0.00,WeatherDisplay:10.37,2013-04-14 13:34:00,
2013-04-14 08:39:00,52.9,44.1,30.10,SSW,193,0.0,0.0,72,0.00,CLR,,0.00,WeatherDisplay:10.37,2013-04-14 13:39:00,
2013-04-14 08:44:00,53.1,44.3,30.10,SSW,193,0.0,0.0,72,0.00,CLR,,0.00,WeatherDisplay:10.37,2013-04-14 13:44:00,
2013-04-14 08:49:00,53.2,44.4,30.10,SSW,193,0.0,0.0,72,0.00,CLR,,0.00,WeatherDisplay:10.37,2013-04-14 13:49:00,
2013-04-14 08:54:00,53.5,44.3,30.10,SSW,193,0.0,0.0,71,0.00,CLR,,0.00,WeatherDisplay:10.37,2013-04-14 13:54:00,
2013-04-14 08:59:00,54.1,45.3,30.09,SSW,192,1.1,0.0,72,0.00,CLR,,0.00,WeatherDisplay:10.37,2013-04-14 13:59:00,
2013-04-14 09:04:00,54.5,45.3,30.08,East,96,1.1,0.0,71,0.00,CLR,,0.00,WeatherDisplay:10.37,2013-04-14 14:04:00,
2013-04-14 09:09:00,55.0,45.4,30.08,ENE,77,1.1,0.0,70,0.00,CLR,,0.00,WeatherDisplay:10.37,2013-04-14 14:09:00,
2013-04-14 09:14:00,55.3,44.9,30.08,ENE,77,0.0,0.0,68,0.00,CLR,,0.00,WeatherDisplay:10.37,2013-04-14 14:14:00,
2013-04-14 09:19:00,55.6,45.2,30.09,ENE,77,0.0,0.0,68,0.00,CLR,,0.00,WeatherDisplay:10.37,2013-04-14 14:19:00,
2013-04-14 09:24:00,56.0,45.2,30.09,ENE,77,0.0,0.0,67,0.00,CLR,,0.00,WeatherDisplay:10.37,2013-04-14 14:24:00,
2013-04-14 09:29:00,56.6,46.2,30.08,ENE,77,0.0,0.0,68,0.00,CLR,,0.00,WeatherDisplay:10.37,2013-04-14 14:29:00,
2013-04-14 09:34:00,57.2,45.9,30.08,ENE,77,0.0,0.0,66,0.00,CLR,,0.00,WeatherDisplay:10.37,2013-04-14 14:34:00,
2013-04-14 09:39:00,57.8,46.1,30.09,ENE,77,0.0,0.0,65,0.00,CLR,,0.00,WeatherDisplay:10.37,2013-04-14 14:39:00,
2013-04-14 09:44:00,58.6,48.1,30.09,ENE,77,0.0,0.0,68,0.00,CLR,,0.00,WeatherDisplay:10.37,2013-04-14 14:44:00,
2013-04-14 09:49:00,59.3,48.7,30.08,ENE,73,0.0,0.0,68,0.00,CLR,,0.00,WeatherDisplay:10.37,2013-04-14 14:49:00,
2013-04-14 09:54:00,59.9,46.8,30.07,ENE,72,0.0,0.0,62,0.00,CLR,,0.00,WeatherDisplay:10.37,2013-04-14 14:54:00,
2013-04-14 09:59:00,60.4,45.5,30.08,ENE,72,0.0,0.0,58,0.00,CLR,,0.00,WeatherDisplay:10.37,2013-04-14 14:59:00,
2013-04-14 10:04:00,60.9,45.6,30.08,ENE,72,0.0,0.0,57,0.00,CLR,,0.00,WeatherDisplay:10.37,2013-04-14 15:04:00,
2013-04-14 10:09:00,61.3,45.0,30.09,ENE,72,0.0,0.0,55,0.00,CLR,,0.00,WeatherDisplay:10.37,2013-04-14 15:09:00,
2013-04-14 10:14:00,62.0,45.2,30.09,ENE,72,0.0,0.0,54,0.00,CLR,,0.00,WeatherDisplay:10.37,2013-04-14 15:14:00,
2013-04-14 10:19:00,62.4,43.5,30.09,ENE,72,1.1,0.0,50,0.00,CLR,,0.00,WeatherDisplay:10.37,2013-04-14 15:19:00,
2013-04-14 10:24:00,62.9,43.4,30.09,ENE,72,0.0,0.0,49,0.00,CLR,,0.00,WeatherDisplay:10.37,2013-04-14 15:24:00,
2013-04-14 10:29:00,63.4,41.7,30.09,ENE,72,0.0,0.0,45,0.00,CLR,,0.00,WeatherDisplay:10.37,2013-04-14 15:29:00,
2013-04-14 10:34:00,63.9,44.4,30.09,ENE,72,0.0,0.0,49,0.00,CLR,,0.00,WeatherDisplay:10.37,2013-04-14 15:34:00,
2013-04-14 10:39:00,64.2,41.8,30.10,ENE,72,1.1,0.0,44,0.00,CLR,,0.00,WeatherDisplay:10.37,2013-04-14 15:39:00,
2013-04-14 10:44:00,64.5,42.1,30.09,ENE,72,1.1,1.1,44,0.00,CLR,,0.00,WeatherDisplay:10.37,2013-04-14 15:44:00,
2013-04-14 10:49:00,64.5,40.3,30.09,ENE,72,0.0,0.0,41,0.00,CLR,,0.00,WeatherDisplay:10.37,2013-04-14 15:49:00,
2013-04-14 10:54:00,64.8,40.5,30.09,ENE,72,0.0,0.0,41,0.00,CLR,,0.00,WeatherDisplay:10.37,2013-04-14 15:54:00,
2013-04-14 10:59:00,65.2,43.9,30.08,ENE,72,0.0,0.0,46,0.00,CLR,,0.00,WeatherDisplay:10.37,2013-04-14 15:59:00,
2013-04-14 11:04:00,65.5,43.0,30.08,ENE,72,0.0,0.0,44,0.00,CLR,,0.00,WeatherDisplay:10.37,2013-04-14 16:04:00,
2013-04-14 11:09:00,65.6,42.5,30.08,ENE,72,0.0,0.0,43,0.00,CLR,,0.00,WeatherDisplay:10.37,2013-04-14 16:09:00,
2013-04-14 11:14:00,66.0,43.5,30.09,ENE,72,0.0,0.0,44,0.00,CLR,,0.00,WeatherDisplay:10.37,2013-04-14 16:14:00,
2013-04-14 11:19:00,66.1,44.1,30.08,ENE,72,0.0,0.0,45,0.00,CLR,,0.00,WeatherDisplay:10.37,2013-04-14 16:19:00,
2013-04-14 11:24:00,66.4,42.0,30.08,ENE,72,0.0,0.0,41,0.00,CLR,,0.00,WeatherDisplay:10.37,2013-04-14 16:24:00,
2013-04-14 11:29:00,66.6,43.4,30.08,ENE,72,0.0,0.0,43,0.00,CLR,,0.00,WeatherDisplay:10.37,2013-04-14 16:29:00,
2013-04-14 11:34:00,66.9,45.4,30.08,ENE,72,1.1,0.0,46,0.00,CLR,,0.00,WeatherDisplay:10.37,2013-04-14 16:34:00,
2013-04-14 11:39:00,67.3,44.0,30.07,ENE,72,0.0,0.0,43,0.00,CLR,,0.00,WeatherDisplay:10.37,2013-04-14 16:39:00,
2013-04-14 11:44:00,67.1,43.2,30.06,NW,313,0.0,0.0,42,0.00,CLR,,0.00,WeatherDisplay:10.37,2013-04-14 16:44:00,
2013-04-14 11:49:00,67.1,43.8,30.06,NW,313,0.0,0.0,43,0.00,CLR,,0.00,WeatherDisplay:10.37,2013-04-14 16:49:00,
2013-04-14 11:54:00,67.1,43.2,30.06,SSW,207,0.0,0.1,42,0.00,CLR,,0.00,WeatherDisplay:10.37,2013-04-14 16:54:00,
2013-04-14 11:59:00,67.3,42.1,30.06,SSW,207,0.0,0.0,40,0.00,CLR,,0.00,WeatherDisplay:10.37,2013-04-14 16:59:00,
2013-04-14 12:04:00,67.4,43.5,30.06,SSW,207,0.0,0.0,42,0.00,CLR,,0.00,WeatherDisplay:10.37,2013-04-14 17:04:00,
2013-04-14 12:09:00,67.6,41.1,30.06,SSW,207,1.1,0.0,38,0.00,CLR,,0.00,WeatherDisplay:10.37,2013-04-14 17:09:00,
2013-04-14 12:14:00,67.8,41.9,30.06,NNW,340,1.1,1.1,39,0.00,CLR,,0.00,WeatherDisplay:10.37,2013-04-14 17:14:00,
2013-04-14 12:19:00,67.8,43.2,30.05,NE,36,2.3,2.3,41,0.00,CLR,,0.00,WeatherDisplay:10.37,2013-04-14 17:19:00,
2013-04-14 12:24:00,67.8,42.6,30.06,NE,36,0.0,0.0,40,0.00,CLR,,0.00,WeatherDisplay:10.37,2013-04-14 17:24:00,
2013-04-14 12:29:00,67.6,41.7,30.06,NE,36,0.0,0.1,39,0.00,CLR,,0.00,WeatherDisplay:10.37,2013-04-14 17:29:00,
2013-04-14 12:34:00,67.4,42.9,30.06,WSW,239,3.0,3.0,41,0.00,CLR,,0.00,WeatherDisplay:10.37,2013-04-14 17:34:00,
2013-04-14 12:39:00,67.3,42.8,30.06,SW,232,5.8,5.8,41,0.00,CLR,,0.00,WeatherDisplay:10.37,2013-04-14 17:39:00,
2013-04-14 12:44:00,67.1,42.6,30.06,SW,220,3.5,3.5,41,0.00,CLR,,0.00,WeatherDisplay:10.37,2013-04-14 17:44:00,
2013-04-14 12:49:00,66.9,43.7,30.06,SSW,200,0.0,0.1,43,0.00,CLR,,0.00,WeatherDisplay:10.37,2013-04-14 17:49:00,
2013-04-14 12:54:00,66.8,44.2,30.06,West,274,5.8,5.8,44,0.00,CLR,,0.00,WeatherDisplay:10.37,2013-04-14 17:54:00,
2013-04-14 12:59:00,66.4,43.8,30.07,South,178,3.5,0.0,44,0.00,CLR,,0.00,WeatherDisplay:10.37,2013-04-14 17:59:00,
2013-04-14 13:04:00,66.4,43.8,30.07,SW,233,5.0,5.0,44,0.00,CLR,,0.00,WeatherDisplay:10.37,2013-04-14 18:04:00,
2013-04-14 13:09:00,66.1,42.3,30.07,South,190,6.9,6.9,42,0.00,CLR,,0.00,WeatherDisplay:10.37,2013-04-14 18:09:00,
2013-04-14 13:14:00,65.8,43.3,30.08,WSW,254,3.5,3.5,44,0.00,CLR,,0.00,WeatherDisplay:10.37,2013-04-14 18:14:00,
2013-04-14 13:19:00,65.5,43.6,30.09,SW,236,5.0,5.0,45,0.00,CLR,,0.00,WeatherDisplay:10.37,2013-04-14 18:19:00,
2013-04-14 13:24:00,65.2,43.9,30.09,WNW,302,2.3,2.3,46,0.00,CLR,,0.00,WeatherDisplay:10.37,2013-04-14 18:24:00,
2013-04-14 13:29:00,65.0,44.3,30.10,SSW,211,3.5,3.5,47,0.00,CLR,,0.00,WeatherDisplay:10.37,2013-04-14 18:29:00,
2013-04-14 13:34:00,64.7,45.6,30.10,SW,222,3.5,3.5,50,0.00,CLR,,0.00,WeatherDisplay:10.37,2013-04-14 18:34:00,
2013-04-14 13:39:00,64.0,46.0,30.10,WSW,252,6.9,6.9,52,0.00,CLR,,0.00,WeatherDisplay:10.37,2013-04-14 18:39:00,
2013-04-14 13:44:00,63.4,48.8,30.10,SSW,195,1.1,1.1,59,0.00,CLR,,0.00,WeatherDisplay:10.37,2013-04-14 18:44:00,
2013-04-14 13:49:00,62.7,48.2,30.10,SSW,210,5.0,5.0,59,0.00,CLR,,0.00,WeatherDisplay:10.37,2013-04-14 18:49:00,
2013-04-14 13:54:00,62.1,49.8,30.10,West,268,0.0,0.0,64,0.00,CLR,,0.00,WeatherDisplay:10.37,2013-04-14 18:54:00,
2013-04-14 13:59:00,61.5,50.4,30.11,South,173,1.1,0.0,67,0.00,CLR,,0.00,WeatherDisplay:10.37,2013-04-14 18:59:00,
2013-04-14 14:04:00,61.0,50.4,30.11,WSW,247,2.3,2.3,68,0.00,CLR,,0.00,WeatherDisplay:10.37,2013-04-14 19:04:00,
2013-04-14 14:09:00,60.4,51.0,30.10,WSW,247,0.0,0.0,71,0.00,CLR,,0.00,WeatherDisplay:10.37,2013-04-14 19:09:00,
2013-04-14 14:14:00,60.1,51.8,30.10,WSW,247,0.0,0.0,74,0.00,CLR,,0.00,WeatherDisplay:10.37,2013-04-14 19:14:00,
2013-04-14 14:19:00,59.8,51.5,30.10,WSW,247,0.0,0.0,74,0.00,CLR,,0.00,WeatherDisplay:10.37,2013-04-14 19:19:00,
2013-04-14 14:24:00,59.6,52.4,30.09,WSW,247,1.1,0.0,77,0.00,CLR,,0.00,WeatherDisplay:10.37,2013-04-14 19:24:00,
2013-04-14 14:29:00,59.6,52.7,30.09,WSW,247,0.0,0.0,78,0.00,CLR,,0.00,WeatherDisplay:10.37,2013-04-14 19:29:00,
2013-04-14 14:34:00,59.6,52.7,30.08,WSW,247,0.0,0.0,78,0.00,CLR,,0.00,WeatherDisplay:10.37,2013-04-14 19:34:00,
2013-04-14 14:39:00,59.5,52.6,30.08,WSW,247,0.0,0.0,78,0.00,CLR,,0.00,WeatherDisplay:10.37,2013-04-14 19:39:00,
2013-04-14 14:44:00,59.5,51.6,30.07,WSW,247,0.0,0.0,75,0.00,CLR,,0.00,WeatherDisplay:10.37,2013-04-14 19:44:00,
2013-04-14 14:49:00,59.3,51.0,30.07,WSW,247,1.1,1.1,74,0.00,CLR,,0.00,WeatherDisplay:10.37,2013-04-14 19:49:00,
2013-04-14 14:54:00,59.3,51.0,30.07,WSW,247,0.0,0.0,74,0.00,CLR,,0.00,WeatherDisplay:10.37,2013-04-14 19:54:00,
2013-04-14 14:59:00,59.6,52.7,30.06,NNW,338,1.1,1.1,78,0.00,CLR,,0.00,WeatherDisplay:10.37,2013-04-14 19:59:00,
2013-04-14 15:04:00,59.8,53.6,30.05,NNW,338,1.1,0.0,80,0.00,CLR,,0.00,WeatherDisplay:10.37,2013-04-14 20:04:00,
2013-04-14 15:09:00,59.8,53.3,30.05,NNW,338,0.0,0.0,79,0.00,CLR,,0.00,WeatherDisplay:10.37,2013-04-14 20:09:00,
2013-04-14 15:14:00,59.8,53.6,30.05,NNW,338,0.0,0.0,80,0.00,CLR,,0.00,WeatherDisplay:10.37,2013-04-14 20:14:00,
2013-04-14 15:19:00,59.8,53.3,30.04,NNW,338,0.0,3.0,79,0.00,CLR,,0.00,WeatherDisplay:10.37,2013-04-14 20:19:00,
2013-04-14 15:24:00,59.8,53.6,30.04,North,350,0.0,0.0,80,0.00,CLR,,0.00,WeatherDisplay:10.37,2013-04-14 20:24:00,
2013-04-14 15:29:00,59.8,53.7,30.04,NNE,17,0.0,3.0,80,0.00,CLR,,0.00,WeatherDisplay:10.37,2013-04-14 20:29:00,
2013-04-14 15:34:00,59.9,53.4,30.03,NNE,21,0.0,0.0,79,0.00,CLR,,0.00,WeatherDisplay:10.37,2013-04-14 20:34:00,
2013-04-14 15:39:00,60.2,53.0,30.03,NNE,21,1.1,1.1,77,0.00,CLR,,0.00,WeatherDisplay:10.37,2013-04-14 20:39:00,
2013-04-14 15:44:00,60.2,51.5,30.03,North,5,2.3,2.3,73,0.00,CLR,,0.00,WeatherDisplay:10.37,2013-04-14 20:44:00,
2013-04-14 15:49:00,60.3,52.3,30.03,NNE,26,1.0,4.0,75,0.00,CLR,,0.00,WeatherDisplay:10.37,2013-04-14 20:49:00,
2013-04-14 15:54:00,60.4,53.5,30.03,NE,53,0.0,2.0,78,0.00,CLR,,0.00,WeatherDisplay:10.37,2013-04-14 20:54:00,
2013-04-14 15:59:00,60.4,52.4,30.03,NNE,15,3.5,3.5,75,0.00,CLR,,0.00,WeatherDisplay:10.37,2013-04-14 20:59:00,
2013-04-14 16:04:00,60.4,52.1,30.04,NE,42,1.0,4.0,74,0.00,CLR,,0.00,WeatherDisplay:10.37,2013-04-14 21:04:00,
2013-04-14 16:10:00,60.2,50.7,30.04,SSW,197,3.0,7.0,71,0.00,CLR,,0.00,WeatherDisplay:10.37,2013-04-14 21:10:00,
2013-04-14 16:14:00,59.9,50.8,30.04,SSW,210,1.0,4.0,72,0.00,CLR,,0.00,WeatherDisplay:10.37,2013-04-14 21:14:00,
2013-04-14 16:19:00,59.8,51.1,30.04,WSW,237,0.0,2.0,73,0.00,CLR,,0.00,WeatherDisplay:10.37,2013-04-14 21:19:00,
2013-04-14 16:24:00,59.7,51.0,30.04,SW,217,0.0,3.0,73,0.00,CLR,,0.00,WeatherDisplay:10.37,2013-04-14 21:24:00,
2013-04-14 16:29:00,59.6,50.9,30.04,South,170,0.0,2.0,73,0.00,CLR,,0.00,WeatherDisplay:10.37,2013-04-14 21:29:00,
2013-04-14 16:35:00,59.6,51.3,30.04,SE,146,0.0,0.0,74,0.00,CLR,,0.00,WeatherDisplay:10.37,2013-04-14 21:35:00,
2013-04-14 16:40:00,59.6,51.3,30.04,SE,146,0.0,0.0,74,0.00,CLR,,0.00,WeatherDisplay:10.37,2013-04-14 21:40:00,
2013-04-14 16:45:00,59.6,50.9,30.03,WSW,239,0.0,0.0,73,0.00,CLR,,0.00,WeatherDisplay:10.37,2013-04-14 21:45:00,
2013-04-14 16:50:00,59.8,51.1,30.03,SW,229,1.1,1.1,73,0.00,CLR,,0.00,WeatherDisplay:10.37,2013-04-14 21:50:00,
2013-04-14 16:55:00,60.1,52.5,30.03,WSW,237,0.0,0.0,76,0.00,CLR,,0.00,WeatherDisplay:10.37,2013-04-14 21:55:00,
2013-04-14 17:00:00,60.1,51.8,30.03,NNE,17,0.0,0.0,74,0.00,CLR,,0.00,WeatherDisplay:10.37,2013-04-14 22:00:00,
2013-04-14 17:05:00,59.9,52.3,30.02,SSE,158,0.0,0.0,76,0.00,CLR,,0.00,WeatherDisplay:10.37,2013-04-14 22:05:00,
2013-04-14 17:10:00,59.8,51.5,30.02,SSE,155,1.1,0.0,74,0.00,CLR,,0.00,WeatherDisplay:10.37,2013-04-14 22:10:00,
2013-04-14 17:15:00,59.6,52.0,30.02,ENE,77,0.0,0.0,76,0.00,CLR,,0.00,WeatherDisplay:10.37,2013-04-14 22:15:00,
2013-04-14 17:20:00,59.5,51.6,30.02,ENE,77,0.0,0.0,75,0.00,CLR,,0.00,WeatherDisplay:10.37,2013-04-14 22:20:00,
2013-04-14 17:25:00,59.3,51.7,30.03,ENE,77,0.0,0.0,76,0.00,CLR,,0.00,WeatherDisplay:10.37,2013-04-14 22:25:00,
2013-04-14 17:30:00,59.3,52.1,30.04,ENE,77,0.0,0.0,77,0.00,CLR,,0.00,WeatherDisplay:10.37,2013-04-14 22:30:00,
2013-04-14 17:35:00,59.2,52.0,30.04,ENE,77,0.0,0.0,77,0.00,CLR,,0.00,WeatherDisplay:10.37,2013-04-14 22:35:00,
2013-04-14 17:40:00,59.2,51.6,30.04,ENE,77,0.0,0.0,76,0.00,CLR,,0.00,WeatherDisplay:10.37,2013-04-14 22:40:00,
2013-04-14 17:45:00,59.2,51.6,30.04,ENE,77,0.0,0.0,76,0.00,CLR,,0.00,WeatherDisplay:10.37,2013-04-14 22:45:00,
2013-04-14 17:50:00,59.0,51.8,30.04,ENE,77,0.0,0.0,77,0.00,CLR,,0.00,WeatherDisplay:10.37,2013-04-14 22:50:00,
2013-04-14 17:55:00,59.0,52.5,30.05,South,186,0.0,0.0,79,0.00,CLR,,0.00,WeatherDisplay:10.37,2013-04-14 22:55:00,
2013-04-14 18:00:00,59.0,51.1,30.05,WNW,295,1.1,0.0,75,0.00,CLR,,0.00,WeatherDisplay:10.37,2013-04-14 23:00:00,
2013-04-14 18:05:00,59.0,51.4,30.04,WNW,295,1.0,0.0,76,0.00,CLR,,0.00,WeatherDisplay:10.37,2013-04-14 23:05:00,
2013-04-14 18:10:00,59.0,51.1,30.04,SW,227,1.1,0.0,75,0.00,CLR,,0.00,WeatherDisplay:10.37,2013-04-14 23:10:00,
2013-04-14 18:15:00,58.9,51.3,30.04,SSW,201,0.0,0.0,76,0.00,CLR,,0.00,WeatherDisplay:10.37,2013-04-14 23:15:00,
2013-04-14 18:20:00,58.7,51.2,30.04,ESE,121,1.1,0.0,76,0.00,CLR,,0.00,WeatherDisplay:10.37,2013-04-14 23:20:00,
2013-04-14 18:25:00,58.6,51.4,30.03,SE,132,2.3,2.3,77,0.00,CLR,,0.00,WeatherDisplay:10.37,2013-04-14 23:25:00,
2013-04-14 18:30:00,58.4,52.3,30.00,ENE,61,2.3,2.3,80,0.00,CLR,,0.00,WeatherDisplay:10.37,2013-04-14 23:30:00,
2013-04-14 18:35:00,58.4,52.3,30.02,ENE,61,0.0,0.0,80,0.00,CLR,,0.00,WeatherDisplay:10.37,2013-04-14 23:35:00,
2013-04-14 18:40:00,58.3,52.2,30.02,ENE,61,0.0,0.0,80,0.00,CLR,,0.00,WeatherDisplay:10.37,2013-04-14 23:40:00,
2013-04-14 18:45:00,58.3,52.2,30.02,ENE,61,0.0,0.0,80,0.00,CLR,,0.00,WeatherDisplay:10.37,2013-04-14 23:45:00,
2013-04-14 18:50:00,58.1,52.0,30.01,ENE,57,1.1,1.1,80,0.00,CLR,,0.00,WeatherDisplay:10.37,2013-04-14 23:50:00,
2013-04-14 18:55:00,58.0,51.9,30.02,ENE,74,0.0,0.0,80,0.00,CLR,,0.00,WeatherDisplay:10.37,2013-04-14 23:55:00,
2013-04-14 19:00:00,58.0,51.9,30.02,ENE,74,0.0,0.0,80,0.00,CLR,,0.00,WeatherDisplay:10.37,2013-04-15 00:00:00,
2013-04-14 19:05:00,57.8,52.0,30.01,ENE,74,1.1,0.0,81,0.00,CLR,,0.00,WeatherDisplay:10.37,2013-04-15 00:05:00,
2013-04-14 19:10:00,57.8,51.7,30.01,East,82,3.5,3.5,80,0.00,CLR,,0.00,WeatherDisplay:10.37,2013-04-15 00:10:00,
2013-04-14 19:15:00,57.8,51.7,30.01,East,82,0.0,0.0,80,0.00,CLR,,0.00,WeatherDisplay:10.37,2013-04-15 00:15:00,
2013-04-14 19:20:00,57.6,51.8,30.01,SSE,163,2.3,2.3,81,0.00,CLR,,0.00,WeatherDisplay:10.37,2013-04-15 00:20:00,
2013-04-14 19:25:00,57.6,51.5,30.01,SSE,165,1.1,0.0,80,0.00,CLR,,0.00,WeatherDisplay:10.37,2013-04-15 00:25:00,
2013-04-14 19:30:00,57.6,51.5,30.01,SW,221,1.1,0.0,80,0.00,CLR,,0.00,WeatherDisplay:10.37,2013-04-15 00:30:00,
2013-04-14 19:35:00,57.6,51.5,30.01,WSW,238,1.1,0.0,80,0.00,CLR,,0.00,WeatherDisplay:10.37,2013-04-15 00:35:00,
2013-04-14 19:40:00,57.6,51.5,30.02,WSW,239,0.0,0.0,80,0.00,CLR,,0.00,WeatherDisplay:10.37,2013-04-15 00:40:00,
2013-04-14 19:45:00,57.8,51.7,30.02,WNW,291,1.1,0.0,80,0.00,CLR,,0.00,WeatherDisplay:10.37,2013-04-15 00:45:00,
2013-04-14 19:50:00,57.8,51.7,30.02,WNW,291,0.0,0.0,80,0.00,CLR,,0.00,WeatherDisplay:10.37,2013-04-15 00:50:00,
2013-04-14 19:55:00,57.8,52.0,30.02,WNW,291,0.0,0.0,81,0.00,CLR,,0.00,WeatherDisplay:10.37,2013-04-15 00:55:00,
2013-04-14 20:00:00,57.8,52.0,30.03,WNW,291,0.0,0.0,81,0.00,CLR,,0.00,WeatherDisplay:10.37,2013-04-15 01:00:00,
2013-04-14 20:05:00,57.8,51.7,30.03,WNW,291,0.0,0.0,80,0.00,CLR,,0.00,WeatherDisplay:10.37,2013-04-15 01:05:00,
2013-04-14 20:10:00,57.8,51.7,30.03,WNW,291,0.0,0.0,80,0.00,CLR,,0.00,WeatherDisplay:10.37,2013-04-15 01:10:00,
2013-04-14 20:15:00,57.8,51.3,30.03,WNW,290,0.0,0.0,79,0.00,CLR,,0.00,WeatherDisplay:10.37,2013-04-15 01:15:00,
2013-04-14 20:20:00,58.0,51.9,30.03,WNW,290,0.0,0.0,80,0.00,CLR,,0.00,WeatherDisplay:10.37,2013-04-15 01:20:00,
2013-04-14 20:25:00,58.0,51.5,30.03,WNW,290,0.0,0.1,79,0.00,CLR,,0.00,WeatherDisplay:10.37,2013-04-15 01:25:00,
2013-04-14 20:30:00,58.0,51.2,30.03,SW,236,1.1,1.1,78,0.00,CLR,,0.00,WeatherDisplay:10.37,2013-04-15 01:30:00,
2013-04-14 20:35:00,58.1,50.9,30.03,SSE,157,1.1,0.0,77,0.00,CLR,,0.00,WeatherDisplay:10.37,2013-04-15 01:35:00,
2013-04-14 20:40:00,58.3,51.5,30.03,SSE,163,2.3,0.0,78,0.00,CLR,,0.00,WeatherDisplay:10.37,2013-04-15 01:40:00,
2013-04-14 20:45:00,58.3,51.5,30.03,North,355,0.0,0.0,78,0.00,CLR,,0.00,WeatherDisplay:10.37,2013-04-15 01:45:00,
2013-04-14 20:50:00,58.4,50.9,30.03,SW,236,3.5,3.5,76,0.00,CLR,,0.00,WeatherDisplay:10.37,2013-04-15 01:50:00,
2013-04-14 20:55:00,58.6,50.7,30.03,WSW,257,3.0,3.0,75,0.00,CLR,,0.00,WeatherDisplay:10.37,2013-04-15 01:55:00,
2013-04-14 21:00:00,58.7,51.2,30.03,WSW,252,0.0,0.0,76,0.00,CLR,,0.00,WeatherDisplay:10.37,2013-04-15 02:00:00,
2013-04-14 21:05:00,58.7,51.2,30.02,WSW,250,3.5,3.5,76,0.00,CLR,,0.00,WeatherDisplay:10.37,2013-04-15 02:05:00,
2013-04-14 21:10:00,58.6,51.1,30.02,WSW,250,0.0,0.0,76,0.00,CLR,,0.00,WeatherDisplay:10.37,2013-04-15 02:10:00,
2013-04-14 21:15:00,58.7,50.8,30.02,SSW,196,3.5,3.5,75,0.00,CLR,,0.00,WeatherDisplay:10.37,2013-04-15 02:15:00,
2013-04-14 21:20:00,58.7,50.8,30.02,SW,225,4.6,4.6,75,0.00,CLR,,0.00,WeatherDisplay:10.37,2013-04-15 02:20:00,
2013-04-14 21:25:00,58.7,50.8,30.02,WSW,251,0.0,0.0,75,0.00,CLR,,0.00,WeatherDisplay:10.37,2013-04-15 02:25:00,
2013-04-14 21:30:00,58.7,51.2,30.02,WSW,251,2.0,2.0,76,0.00,CLR,,0.00,WeatherDisplay:10.37,2013-04-15 02:30:00,
2013-04-14 21:35:00,58.7,51.2,30.02,WSW,248,3.5,3.5,76,0.00,CLR,,0.00,WeatherDisplay:10.37,2013-04-15 02:35:00,
2013-04-14 21:40:00,58.7,51.2,30.02,WNW,301,0.0,0.0,76,0.00,CLR,,0.00,WeatherDisplay:10.37,2013-04-15 02:40:00,
2013-04-14 21:45:00,58.7,51.2,30.02,WSW,237,3.5,3.5,76,0.00,CLR,,0.00,WeatherDisplay:10.37,2013-04-15 02:45:00,
2013-04-14 21:50:00,58.7,51.2,30.01,WSW,254,2.3,2.3,76,0.00,CLR,,0.00,WeatherDisplay:10.37,2013-04-15 02:50:00,
2013-04-14 21:55:00,58.7,51.5,30.01,SW,221,0.0,0.0,77,0.00,CLR,,0.00,WeatherDisplay:10.37,2013-04-15 02:55:00,
2013-04-14 22:00:00,58.7,51.2,30.02,South,174,1.1,1.1,76,0.00,CLR,,0.00,WeatherDisplay:10.37,2013-04-15 03:00:00,
2013-04-14 22:05:00,58.7,51.2,30.02,South,174,0.0,0.0,76,0.00,CLR,,0.00,WeatherDisplay:10.37,2013-04-15 03:05:00,
2013-04-14 22:10:00,58.7,51.5,30.02,South,178,0.0,0.0,77,0.00,CLR,,0.00,WeatherDisplay:10.37,2013-04-15 03:10:00,
2013-04-14 22:15:00,58.7,51.2,30.02,South,183,1.1,0.0,76,0.00,CLR,,0.00,WeatherDisplay:10.37,2013-04-15 03:15:00,
2013-04-14 22:20:00,58.7,51.5,30.02,South,183,0.0,0.0,77,0.00,CLR,,0.00,WeatherDisplay:10.37,2013-04-15 03:20:00,
2013-04-14 22:25:00,58.7,51.5,30.02,SE,142,2.3,2.3,77,0.00,CLR,,0.00,WeatherDisplay:10.37,2013-04-15 03:25:00,
2013-04-14 22:30:00,58.7,51.5,30.02,SW,222,0.0,0.3,77,0.00,CLR,,0.00,WeatherDisplay:10.37,2013-04-15 03:30:00,
2013-04-14 22:35:00,58.7,51.5,30.02,South,185,0.0,0.0,77,0.00,CLR,,0.00,WeatherDisplay:10.37,2013-04-15 03:35:00,
2013-04-14 22:40:00,58.7,51.5,30.02,ESE,117,0.0,0.0,77,0.00,CLR,,0.00,WeatherDisplay:10.37,2013-04-15 03:40:00,
2013-04-14 22:45:00,58.7,51.5,30.02,East,85,3.0,3.0,77,0.00,CLR,,0.00,WeatherDisplay:10.37,2013-04-15 03:45:00,
2013-04-14 22:50:00,58.7,51.9,30.02,ESE,106,1.1,0.0,78,0.00,CLR,,0.00,WeatherDisplay:10.37,2013-04-15 03:50:00,
2013-04-14 22:55:00,58.7,51.9,30.02,ESE,105,0.0,0.0,78,0.00,CLR,,0.00,WeatherDisplay:10.37,2013-04-15 03:55:00,
2013-04-14 23:00:00,58.7,51.9,30.02,East,96,0.0,0.0,78,0.00,CLR,,0.00,WeatherDisplay:10.37,2013-04-15 04:00:00,
2013-04-14 23:01:00,58.7,52.2,30.02,NE,40,2.3,2.3,79,0.00,CLR,,0.00,WeatherDisplay:10.37,2013-04-15 04:01:00,
2013-04-14 23:07:00,58.6,52.1,30.02,SE,130,0.0,0.0,79,0.00,CLR,,0.00,WeatherDisplay:10.37,2013-04-15 04:07:00,
2013-04-14 23:12:00,58.6,52.1,30.02,SSE,161,0.0,0.0,79,0.00,CLR,,0.00,WeatherDisplay:10.37,2013-04-15 04:12:00,
2013-04-14 23:17:00,58.6,52.1,30.02,SSE,161,0.0,0.0,79,0.00,CLR,,0.00,WeatherDisplay:10.37,2013-04-15 04:17:00,
2013-04-14 23:22:00,58.6,52.4,30.02,SSE,161,0.0,0.0,80,0.00,CLR,,0.00,WeatherDisplay:10.37,2013-04-15 04:22:00,
2013-04-14 23:27:00,58.4,52.3,30.02,SSE,161,0.0,0.0,80,0.00,CLR,,0.00,WeatherDisplay:10.37,2013-04-15 04:27:00,
2013-04-14 23:32:00,58.4,52.3,30.02,SSE,161,0.0,0.0,80,0.00,CLR,,0.00,WeatherDisplay:10.37,2013-04-15 04:32:00,
2013-04-14 23:37:00,58.4,52.3,30.02,SSE,161,0.0,0.0,80,0.00,CLR,,0.00,WeatherDisplay:10.37,2013-04-15 04:37:00,
2013-04-14 23:42:00,58.4,52.3,30.02,SE,139,0.0,0.0,80,0.00,CLR,,0.00,WeatherDisplay:10.37,2013-04-15 04:42:00,
2013-04-14 23:47:00,58.4,52.3,30.02,SE,139,0.0,0.0,80,0.00,CLR,,0.00,WeatherDisplay:10.37,2013-04-15 04:47:00,
2013-04-14 23:52:00,58.4,52.3,30.02,SE,139,0.0,0.0,80,0.00,CLR,,0.00,WeatherDisplay:10.37,2013-04-15 04:52:00,
2013-04-14 23:57:00,58.4,52.3,30.02,SE,139,0.0,0.0,80,0.00,CLR,,0.00,WeatherDisplay:10.37,2013-04-15 04:57:00,